sat.trackr.live / text

‹ back to catalog

STARLINK-33958

NORAD 63850 · 2025-093Q

PAYLOAD ACTIVE UNKNOWN

§ Identity

Operator
Country
US
Launch date
2025-05-07
Launch site
AFETR
Launch vehicle
Mass (kg)
RCS (m²)

Purposes: comms

External: N2YO · Heavens-Above · Gunter

§ Orbital elements

Epoch: 2026-09-19T17:23:21.859584Z

Period
94.27 min
Inclination
43.0014°
Eccentricity
0.0001355
Mean motion
15.27591293 rev/d
Perigee alt
482.1 km
Apogee alt
483.9 km
Semi-major
6,861.2 km
B*
5.8693e-4
RAAN
62.4076°
Arg perigee
267.5018°
Mean anomaly
92.5678°
Rev number
7,748

§ Raw data

STARLINK-339581 63850U 25093Q   26262.72455856  .00015929  00000+0  58693-3 0  99902 63850  43.0014  62.4076 0001355 267.5018  92.5678 15.27591293 77481

JSON: /api/v1/satellites/63850 · /tle

For live sub-satellite position, see the globe view (requires WebGL).

§ Visibility from observer

Set your observer location to see the next 7 days of passes ≥ 10°. The values pass through the URL so the page stays shareable.

No JS? Fill the form by hand. The geolocation button needs JavaScript.